Regional Weather Roundup
Issued by NWS

Home | Current Version | Previous Version | Text Only | Print | Product List | Glossary Off
Versions: 1 2 3 4 5 6 7 8 9 10 11 12 13 14 15 16 17 18 19 20 21 22 23 24 25 26 27 28 29 30 31 32 33 34 35 36 37 38 39 40 41 42 43 44 45 46 47 48 49 50

000
ASUS43 KLOT 252008
RWRIL

ILLINOIS REGIONAL WEATHER ROUNDUP
NATIONAL WEATHER SERVICE CHICAGO/ROMEOVILLE IL
300 PM CDT SAT MAR 25 2017

NOTE: "FAIR" INDICATES FEW OR NO CLOUDS BELOW 12,000 FEET WITH NO
SIGNIFICANT WEATHER AND/OR OBSTRUCTIONS TO VISIBILITY.

* THESE STATIONS ARE NOT UNDER NWS QUALITY CONTROL. THEY ALSO MAY NOT
  REPORT WEATHER SUCH AS PRECIPITATION OR FOG.

ILZ001-002-007-009-015-016-024-252100-
NORTHWEST ILLINOIS

CITY           SKY/WX    TMP DP  RH WIND       PRES   REMARKS
MOLINE         CLOUDY    53  50  89 E13       29.89F
STERLING*      CLOUDY    50  47  89 E20       29.93F
SAVANNA*       CLOUDY    44  43  94 NE14G22   29.94F
$$

ILZ003-004-008-010-011-017-018-252100-
NORTH CENTRAL ILLINOIS

CITY           SKY/WX    TMP DP  RH WIND       PRES   REMARKS
ROCKFORD       CLOUDY    45  41  86 E14       30.00F
FREEPORT*      CLOUDY    42  41  96 E14G21    29.99F
ROCHELLE*      CLOUDY    46  44  95 NE13      29.97F
DE KALB*       DRIZZLE   43  42  97 NE13      29.99S
PERU*          CLOUDY    50  48  93 E14       29.94S FOG
$$

ILZ005-006-012>014-019>023-252100-
NORTHEAST ILLINOIS

CITY           SKY/WX    TMP DP  RH WIND       PRES   REMARKS
CHICAGO-OHARE  CLOUDY    44  41  89 NE13      30.00F FOG
CHICAGO-MIDWAY CLOUDY    48  46  93 NE10G17   29.99F FOG
AURORA         FOG       45  43  93 NE17      29.98S VSB 1
LANSING*       CLOUDY    48  47  97 N7        29.97F FOG
JOLIET*        CLOUDY    50  49  95 NE8       29.97F FOG
WAUKEGAN       CLOUDY    39  39 100 NE12      30.04F FOG     WCI  32
DUPAGE AIRPORT FOG       43  43 100 NE13      29.99F VSB 3/4
KANKAKEE*      DRIZZLE   63  55  74 CALM      29.95S
WHEELING       CLOUDY    41  41 100 NE10      30.02F
MORRIS*        DRIZZLE   51  49  92 NE5       29.96S
ROMEOVILLE*    CLOUDY    47  47 100 NE10      29.97F FOG
NORTHERLY ISL    N/A     44  42  93 MISG        N/A
$$

LMZ740>746-252100-
SOUTHERN LAKE MICHIGAN

STATION/POSITION SKY/WX   TEMP    WIND        PRES    VSBY  WAVE
                          AIR SEA DIR/SP/G                  HT/PER
                          (F)     (DEG/KT/KT) (MB)    (MI)  (FT/S)
HARRISON CRIB                      10/  6/  8   N/A
BURNHAM HARBOR                    350/  5/ 11   N/A
CALUMET HARBOR             44     340/  6/  8 1014.9F
BURNS HARBOR               47      30/  3/  5 1015.6F
MICHIGAN CITY              61      80/ 12/ 15   N/A
$$

ILZ025>027-034>036-040-047-049-050-058-095>099-252100-
WEST-CENTRAL ILLINOIS

CITY           SKY/WX    TMP DP  RH WIND       PRES   REMARKS
QUINCY         CLOUDY    61  54  77 SE9       29.83F
GALESBURG*     CLOUDY    63  54  72 SE6       29.86S
MACOMB*        CLOUDY    61  56  81 S12G18    29.88S
JACKSONVILLE*  CLOUDY    62  56  81 SE6       29.85F
PITTSFIELD*    CLOUDY    61  56  85 SE7       29.85F
$$

ILZ028>032-037-038-041>044-048-051>054-059>061-252100-
CENTRAL ILLINOIS

CITY           SKY/WX    TMP DP  RH WIND       PRES   REMARKS
PONTIAC        DRIZZLE   62  60  93 S6        29.94F
BLOOMINGTON    LGT RAIN  59  57  93 SE5       29.92F
DECATUR        CLOUDY    67  52  58 S13       29.89F
PEORIA         LGT RAIN  58  58 100 SE10      29.90S FOG
LACON*         CLOUDY    62  55  78 SE12      29.90S
LINCOLN*       CLOUDY    63  59  86 S5        29.89F
SPRINGFIELD    LGT RAIN  64  57  78 SE7       29.87F
TAYLORVILLE    CLOUDY    64  55  72 S16G22    29.88S
$$

ILZ033-039-045-046-055>057-062-063-252100-
EAST-CENTRAL ILLINOIS

CITY           SKY/WX    TMP DP  RH WIND       PRES   REMARKS
CHAMPAIGN      CLOUDY    68  52  56 S16       29.91F
RANTOUL*       CLOUDY    67  58  72 S10       29.92F
MATTOON        LGT RAIN  66  55  67 S15G25    29.92R
PARIS*         CLOUDY    71  55  56 S20G29    29.94F
$$

ILZ079-100>102-252100-
SOUTHWEST ILLINOIS

CITY           SKY/WX    TMP DP  RH WIND       PRES   REMARKS
ALTON          CLOUDY    63  55  77 SE13      29.85F
BELLEVILLE     CLOUDY    63  62  95 SE16      29.84F
CAHOKIA*       LGT RAIN  64  57  78 SE17G23   29.83F
SPARTA*        CLOUDY    60  58  95 SE13      29.88F
$$

ILZ064>066-069>071-074>076-080>082-084>086-088>090-092>094-252100-
SOUTH-CENTRAL ILLINOIS

CITY           SKY/WX    TMP DP  RH WIND       PRES   REMARKS
CARBONDALE     LGT RAIN  61  60  97 S13       29.88F
CAIRO*         LGT RAIN  61  59  94 S14       29.90F
EFFINGHAM*     CLOUDY    65  57  74 SE9G16    29.93F
MARION         CLOUDY    63  63 100 S8        29.91F
MT. VERNON     LGT RAIN  64  58  80 S12G21    29.90F
CENTRALIA*     LGT RAIN  65  58  79 S13       29.88F
SALEM*         DRIZZLE   66  56  69 S9        29.89F
METROPOLIS*    CLOUDY    65  58  77 S15G25    29.92F
$$

ILZ067-068-072-073-078-083-087-091-252100-
SOUTHEAST ILLINOIS

CITY           SKY/WX    TMP DP  RH WIND       PRES   REMARKS
LAWRENCEVILLE  LGT RAIN  71  54  54 S23G29    29.93F
FLORA*         CLOUDY    68  57  68 S10       29.91F
FAIRFIELD*     LGT RAIN  65  58  80 S9        29.91F
HARRISBURG*    CLOUDY    65  58  78 S12       29.92F
ROBINSON*      PTSUNNY   70  52  52 S16G24    29.94S
CARMI*         LGT RAIN  67  57  71 S16G23    29.93S
$$

ABBREVIATIONS USED IN REMARKS
   TC - TEMPERATURE IN CELSIUS
  WCI - WIND CHILL INDEX
   HX - HEAT INDEX
  VSB - VISIBILITY
$$




USA.gov is the U.S. government's official web portal to all federal, state and local government web resources and services.